SCP
0 0 0 0 0 0 0 0 0 2 2 2 2 2 2 2 2 1 2 5 5 3 2 1 2 3 2 2 2 1 1 0 0 0 0 0 0 0 0 1 1 1 1
0 0 0 0 0 0 -0 -0 1 0 1 2 2 1 1 1 1 1 7 4 3 2 3 3 2 3 1 2 1 1 0 0 0 0 0 0 0 0 0 0 0 1 1
0 0 0 0 0 -0 0 0 1 1 2 1 2 2 4 2 2 2 3 3 3 3 3 2 2 1 1 0 2 1 1 0 0 0 0 0 0 0 0 0 0 0 0
0 0 0 0 0 0 0 0 1 3 1 3 2 5 4 2 1 1 1 2 2 2 2 2 1 1 0 1 0 0 0 1 0 0 0 0 0 0 0 0 0 0 0
0 0 0 0 0 0 0 0 1 3 2 4 5 3 2 1 2 1 5 4 3 1 0 0 0 1 0 0 1 1 1 0 0 0 0 0 0 0 0 0 0 0 0
0 0 0 0 0 0 0 0 2 2 4 2 2 2 2 2 1 1 0 0 0 0 0 0 0 1 1 1 1 1 1 1 0 0 0 0 0 0 0 0 0 0 0
0 0 0 0 0 0 0 0 1 1 1 1 1 1 2 2 2 1 0 0 0 0 1 1 1 0 2 1 1 2 2 2 1 2 0 0 0 0 0 0 0 0 0
0 0 0 0 0 0 0 0 0 0 0 0 0 1 1 0 0 1 1 0 0 0 2 1 1 1 1 1 2 1 1 1 2 2 1 0 0 0 0 0 0 0 0
0 0 0 0 0 0 0 0 0 0 0 0 0 0 0 0 0 0 0 0 0 0 0 0 0 0 1 1 2 2 2 3 3 2 3 3 1 0 0 0 0 0 0
0 0 0 0 0 0 0 0 0 0 0 0 0 0 0 0 0 0 0 0 0 0 0 0 0 0 0 1 2 1 2 2 2 3 2 2 2 1 1 1 0 0 0
0 0 0 0 0 0 0 0 0 0 0 0 0 0 0 0 0 0 0 0 0 0 0 0 0 0 0 0 0 1 2 2 2 2 2 2 2 2 1 1 1 0 1
0 0 0 0 0 0 0 0 0 0 0 0 0 0 0 0 0 0 0 0 0 0 0 0 0 0 0 0 0 0 0 0 1 1 1 1 1 1 1 1 1 1 1
0 0 0 0 0 0 0 0 0 0 0 0 0 0 0 0 0 0 0 0 0 0 0 0 0 0 0 0 0 0 0 0 0 0 1 1 1 1 1 1 1 1 1
0 0 0 0 0 0 0 0 0 0 0 0 0 0 0 0 0 0 0 0 0 0 0 0 0 0 0 0 0 0 0 0 0 0 0 0 0 0 0 0 0 0 1
0 0 0 0 0 0 0 0 0 0 0 0 0 0 0 0 0 0 0 0 0 0 0 0 0 0 0 0 0 0 0 0 0 0 0 0 0 0 0 0 0 0 0
0 0 0 0 0 0 0 0 0 0 0 0 0 0 0 0 0 0 0 0 0 0 0 0 0 0 0 0 0 0 0 0 0 0 0 0 0 0 0 0 0 0 0
0 0 0 0 0 0 0 0 0 0 0 0 0 0 0 0 0 0 0 0 0 0 0 0 0 0 0 0 0 0 0 0 0 0 0 0 0 0 0 0 0 0 0
0 0 0 0 0 0 0 0 0 0 0 0 0 0 0 0 0 0 0 0 0 0 0 0 0 0 0 0 0 0 0 0 0 0 0 0 0 0 0 0 0 0 0
0 0 0 0 0 0 0 0 0 0 0 0 0 0 0 0 0 0 0 0 0 0 0 0 0 0 0 0 0 0 0 0 0 0 0 0 0 0 0 0 0 0 0
0 0 0 0 0 0 0 0 0 0 0 0 0 0 0 0 0 0 0 0 0 0 0 0 0 0 0 0 0 0 0 0 0 0 0 0 0 0 0 0 0 0 0
0 0 0 0 0 0 0 0 0 0 0 0 0 0 0 0 0 0 0 0 0 0 0 0 0 0 0 0 0 0 0 0 0 0 0 0 0 0 0 -0 0 0 0
0 0 0 0 0 0 0 0 0 0 0 0 0 0 0 0 0 0 0 0 0 0 0 0 0 0 0 0 0 0 0 0 0 0 0 -0 -0 -0 0 0 0 0 0
0 0 0 0 0 0 0 0 0 0 0 0 0 0 0 0 0 0 0 0 0 0 0 0 0 0 0 0 0 0 -0 -0 -0 -0 0 -0 -0 0 -0 0 0 -0 0
0 0 0 0 0 0 0 0 0 0 0 0 0 0 0 0 0 0 0 0 0 0 0 0 0 0 0 0 0 0 0 -0 -0 0 0 0 -0 -0 -0 0 0 0 -0
0 0 0 0 0 0 0 -0 0 0 0 0 0 0 0 -0 0 0 0 0 0 0 0 0 0 0 0 0 0 0 0 -0 -0 0 0 0 0 0 0 0 0 0 0
0 0 0 0 0 0 0 -0 -0 -0 -0 0 0 0 0 0 0 0 0 0 0 0 0 0 0 0 0 -0 -0 -0 -0 -0 -0 0 0 0 0 0 0 0 0 0 0
Wind_Speed_500mb
58 62 60 54 49 38 31 27 27 32 32 34 33 32 38 37 35 37 38 46 38 42 44 39 23 35 26 28 29 29 29 31 30 36 40 45 47 51 52 59 62 64 65
68 60 71 62 46 38 35 34 38 22 29 30 33 32 32 34 34 33 39 48 37 37 39 37 29 28 28 32 36 32 28 29 29 35 40 50 49 47 45 47 50 55 62
69 62 82 83 65 48 22 18 39 57 39 26 28 27 26 30 29 32 32 38 40 37 37 30 36 32 36 27 37 35 28 26 27 28 32 35 44 51 52 54 60 65 59
59 70 79 89 68 33 37 56 37 42 53 44 44 41 30 27 27 29 29 30 28 28 33 39 32 40 29 26 30 37 34 31 28 27 30 38 48 53 59 52 52 51 57
37 65 75 63 37 23 27 53 65 60 63 73 50 38 33 26 22 24 34 40 34 30 28 30 30 34 33 31 41 40 38 32 30 32 33 36 40 45 52 57 54 52 50
16 47 38 44 31 31 41 52 47 44 48 53 44 33 30 27 25 26 21 18 23 23 28 28 31 34 37 41 41 46 47 49 44 41 38 40 42 46 49 53 54 55 55
15 14 27 28 32 32 40 35 31 28 30 29 27 28 38 42 32 20 17 22 23 24 26 31 38 38 42 45 48 48 53 53 52 58 49 44 46 47 49 52 56 56 56
27 31 31 39 37 35 34 32 28 21 21 21 20 31 25 13 12 16 22 17 19 24 36 43 35 32 37 45 50 54 59 59 62 65 68 63 56 54 54 55 56 58 57
32 33 32 35 34 34 34 35 27 25 19 17 12 11 16 18 22 26 30 28 30 33 31 40 43 49 52 58 63 62 69 72 72 75 73 76 73 70 64 61 58 59 59
36 35 35 33 32 30 30 26 22 18 13 9 8 5 6 14 24 32 37 43 49 53 59 64 66 71 73 74 69 69 74 81 88 88 79 81 76 76 73 69 66 65 66
33 32 31 29 28 26 21 18 15 14 12 9 9 12 21 27 31 40 45 50 56 58 60 60 64 63 63 65 70 75 80 86 89 87 92 98 88 82 79 77 75 72 69
32 30 25 24 21 19 18 16 17 16 18 19 23 27 32 37 43 47 52 55 58 58 58 58 58 61 61 64 69 72 76 80 81 86 94 97 91 90 89 90 89 85 78
27 23 20 18 16 14 14 13 15 16 19 23 24 26 32 37 40 45 48 50 51 52 52 54 56 56 57 60 63 68 74 77 79 82 85 89 92 98 95 93 86 79 78
16 15 13 13 14 16 18 20 22 25 27 30 32 34 36 40 42 44 47 49 49 50 52 52 54 55 58 59 60 63 71 76 79 80 81 83 82 82 84 92 95 88 92
7 10 11 13 16 17 19 22 24 27 31 34 37 39 41 42 44 45 45 49 52 55 53 55 57 59 63 59 59 63 63 63 69 75 80 80 77 79 87 84 78 83 89
6 10 14 18 20 23 26 28 31 33 35 36 39 40 41 41 42 45 47 48 53 56 54 53 56 59 62 62 70 77 80 77 74 80 74 71 83 99 104 101 104 99 96
7 13 18 20 23 25 27 31 33 34 35 36 36 36 37 37 40 43 46 47 53 56 58 61 62 71 73 69 71 72 73 72 79 82 81 74 67 72 73 79 82 85 109
16 19 21 22 24 27 29 31 33 33 33 34 32 32 34 37 40 42 46 52 54 54 58 62 63 66 66 63 67 66 67 74 80 77 71 71 78 72 72 76 80 87 88
20 22 24 28 31 31 31 33 34 32 31 30 29 30 33 36 41 46 50 52 50 49 51 56 62 59 59 62 56 61 66 63 63 62 63 61 69 63 70 74 84 84 88
21 25 29 30 29 28 31 33 31 29 27 27 29 29 34 38 40 41 43 43 46 50 52 58 57 56 67 62 55 57 61 59 56 53 52 52 56 62 62 68 82 92 99
25 28 28 28 28 30 28 28 27 25 27 26 29 33 34 36 35 42 47 50 53 57 60 68 64 62 57 55 51 42 49 55 56 55 53 49 53 41 42 49 56 48 49
30 29 29 29 29 25 25 26 26 21 23 29 32 34 35 33 39 42 47 50 54 55 70 55 55 52 52 65 40 41 51 48 57 54 56 50 52 38 19 18 23 26 21
27 27 27 28 25 26 25 24 20 23 27 29 31 34 35 34 32 41 53 53 43 47 57 62 61 55 51 52 56 44 51 45 58 63 40 39 25 13 7 11 7 9 11
25 28 28 27 28 26 23 22 24 25 27 29 30 33 28 34 32 40 46 48 44 47 49 56 57 55 55 53 48 48 42 37 17 19 20 27 13 6 20 22 26 24 9
28 28 29 28 30 25 23 23 23 25 26 28 30 32 27 27 33 45 48 44 37 39 48 51 51 55 58 42 27 22 21 19 6 9 13 14 12 9 13 17 22 16 4
32 27 28 29 27 26 24 26 26 24 24 26 28 28 28 27 32 45 46 37 38 37 46 43 42 33 24 35 25 13 10 21 22 20 13 12 9 15 9 2 4 10 12
Wind_Direction_500mb
215 212 198 206 274 296 303 322 279 230 223 221 225 227 229 231 233 231 230 232 216 226 229 226 238 252 243 237 239 247 264 273 278 282 286 287 291 288 284 279 278 277 276
241 212 209 230 248 262 301 288 306 266 219 227 226 230 236 235 235 231 228 237 223 218 224 228 227 233 235 247 252 254 262 268 273 277 285 290 294 293 292 290 289 285 281
238 222 207 211 237 259 275 255 266 269 268 243 232 231 222 227 221 223 226 227 221 219 220 228 224 229 239 240 271 276 266 265 271 272 279 294 294 304 299 295 292 292 293
239 227 203 202 221 234 225 272 283 246 256 255 253 234 208 218 226 222 224 228 225 219 219 223 231 239 239 252 241 254 251 250 266 277 278 280 286 289 295 297 296 295 293
243 217 206 195 195 208 210 244 267 257 239 231 226 239 223 227 223 218 220 214 225 211 219 232 235 248 256 245 244 238 245 252 260 269 279 283 284 286 285 293 298 296 292
190 166 170 182 175 181 211 238 232 229 218 226 207 216 234 218 210 204 216 219 227 243 239 235 248 247 249 254 247 261 265 266 260 260 264 272 279 285 287 291 295 297 293
154 175 171 167 182 187 194 201 198 190 184 176 178 191 193 190 189 181 217 229 234 241 255 267 265 254 263 265 255 258 263 263 264 268 265 265 267 273 279 284 289 292 295
116 114 120 129 134 142 156 162 159 157 156 160 162 186 173 173 177 211 208 222 239 250 250 251 244 251 260 261 261 267 266 262 262 266 266 262 259 262 268 274 283 288 289
113 109 107 111 122 127 126 130 132 133 133 136 129 174 196 213 225 234 250 263 261 263 273 265 262 267 271 271 263 262 263 261 259 257 258 261 259 258 257 264 269 275 283
117 115 114 114 115 110 108 114 119 113 107 109 136 259 285 276 280 285 285 285 283 283 282 283 282 280 277 274 269 268 266 264 261 258 256 256 254 256 255 255 260 265 270
121 113 107 102 101 100 93 85 79 68 48 27 332 305 299 294 293 292 291 289 288 288 286 284 283 279 275 273 271 266 263 261 260 259 260 256 254 254 253 256 258 260 262
121 115 109 101 93 85 77 42 33 26 8 354 339 323 311 306 298 294 292 291 290 289 287 283 278 274 273 272 269 270 268 266 267 269 265 262 259 255 257 255 255 257 256
115 110 103 90 79 58 43 28 12 5 348 337 327 320 311 308 305 300 299 295 290 288 286 280 278 280 279 278 275 272 271 271 270 269 268 270 267 264 262 260 260 260 261
109 91 77 64 33 19 3 358 351 347 335 326 322 317 314 308 306 303 299 298 295 288 284 284 285 283 281 278 277 275 274 271 270 270 270 270 268 270 272 270 265 262 259
90 56 31 14 360 351 344 342 334 332 326 321 317 312 311 310 308 302 295 291 290 289 287 283 279 276 274 275 276 271 269 271 272 274 271 267 265 265 263 267 272 271 265
63 2 351 345 339 337 334 328 326 322 318 315 311 311 308 305 296 296 298 294 291 285 284 285 285 283 278 275 269 265 271 271 270 268 272 272 271 264 260 261 260 260 265
358 333 330 329 327 325 321 317 312 313 313 309 306 303 301 299 299 299 297 295 290 293 293 291 290 289 291 286 279 275 274 274 270 270 272 274 275 272 272 272 269 273 259
328 324 323 319 315 311 311 309 309 309 308 306 303 303 307 305 302 303 300 299 299 299 299 296 293 291 291 293 290 286 285 280 274 272 273 270 272 274 278 275 274 271 268
325 322 318 315 313 313 309 307 310 309 307 307 308 310 306 308 310 305 303 303 304 300 299 297 292 291 291 293 296 292 289 283 280 276 271 271 271 274 278 278 282 279 270
323 319 313 314 311 308 308 309 308 309 305 301 297 309 311 306 305 303 305 303 300 299 301 305 297 290 298 308 299 294 293 289 283 280 276 280 279 283 284 279 277 275 267
324 320 318 314 309 312 311 307 303 297 291 300 311 301 301 302 306 315 326 312 307 313 304 305 298 291 290 310 301 292 292 288 280 280 281 276 279 277 277 282 290 281 277
328 325 322 316 317 318 311 302 297 300 320 307 305 308 311 310 327 322 314 318 306 297 311 314 306 305 295 302 303 292 288 287 284 280 279 272 278 289 306 328 48 72 83
331 329 324 321 318 312 309 309 320 322 307 315 314 315 318 325 320 316 314 329 319 312 308 318 320 311 305 300 299 291 294 286 279 278 263 274 268 132 33 178 174 169 153
341 335 329 323 321 321 321 317 310 311 313 314 316 324 335 339 321 321 331 335 330 326 325 319 316 318 315 310 308 307 307 309 291 261 243 236 256 255 238 262 275 274 267
344 343 339 335 332 336 335 329 322 318 314 312 322 331 331 321 325 338 360 355 346 336 326 326 324 316 317 339 318 297 278 281 223 174 205 182 204 263 266 293 281 292 108
348 349 348 342 346 346 343 328 325 318 314 317 323 326 329 322 329 340 3 17 12 7 357 345 350 8 347 339 353 344 349 49 98 146 154 136 142 193 237 209 199 113 100
Wind_Speed_850mb
58 62 60 54 49 38 31 27 27 32 32 34 33 32 38 37 35 37 38 46 38 42 44 39 23 35 26 28 29 29 29 31 30 36 40 45 47 51 52 59 62 64 65
68 60 71 62 46 38 35 34 38 22 29 30 33 32 32 34 34 33 39 48 37 37 39 37 29 28 28 32 36 32 28 29 29 35 40 50 49 47 45 47 50 55 62
69 62 82 83 65 48 22 18 39 57 39 26 28 27 26 30 29 32 32 38 40 37 37 30 36 32 36 27 37 35 28 26 27 28 32 35 44 51 52 54 60 65 59
59 70 79 89 68 33 37 56 37 42 53 44 44 41 30 27 27 29 29 30 28 28 33 39 32 40 29 26 30 37 34 31 28 27 30 38 48 53 59 52 52 51 57
37 65 75 63 37 23 27 53 65 60 63 73 50 38 33 26 22 24 34 40 34 30 28 30 30 34 33 31 41 40 38 32 30 32 33 36 40 45 52 57 54 52 50
16 47 38 44 31 31 41 52 47 44 48 53 44 33 30 27 25 26 21 18 23 23 28 28 31 34 37 41 41 46 47 49 44 41 38 40 42 46 49 53 54 55 55
15 14 27 28 32 32 40 35 31 28 30 29 27 28 38 42 32 20 17 22 23 24 26 31 38 38 42 45 48 48 53 53 52 58 49 44 46 47 49 52 56 56 56
27 31 31 39 37 35 34 32 28 21 21 21 20 31 25 13 12 16 22 17 19 24 36 43 35 32 37 45 50 54 59 59 62 65 68 63 56 54 54 55 56 58 57
32 33 32 35 34 34 34 35 27 25 19 17 12 11 16 18 22 26 30 28 30 33 31 40 43 49 52 58 63 62 69 72 72 75 73 76 73 70 64 61 58 59 59
36 35 35 33 32 30 30 26 22 18 13 9 8 5 6 14 24 32 37 43 49 53 59 64 66 71 73 74 69 69 74 81 88 88 79 81 76 76 73 69 66 65 66
33 32 31 29 28 26 21 18 15 14 12 9 9 12 21 27 31 40 45 50 56 58 60 60 64 63 63 65 70 75 80 86 89 87 92 98 88 82 79 77 75 72 69
32 30 25 24 21 19 18 16 17 16 18 19 23 27 32 37 43 47 52 55 58 58 58 58 58 61 61 64 69 72 76 80 81 86 94 97 91 90 89 90 89 85 78
27 23 20 18 16 14 14 13 15 16 19 23 24 26 32 37 40 45 48 50 51 52 52 54 56 56 57 60 63 68 74 77 79 82 85 89 92 98 95 93 86 79 78
16 15 13 13 14 16 18 20 22 25 27 30 32 34 36 40 42 44 47 49 49 50 52 52 54 55 58 59 60 63 71 76 79 80 81 83 82 82 84 92 95 88 92
7 10 11 13 16 17 19 22 24 27 31 34 37 39 41 42 44 45 45 49 52 55 53 55 57 59 63 59 59 63 63 63 69 75 80 80 77 79 87 84 78 83 89
6 10 14 18 20 23 26 28 31 33 35 36 39 40 41 41 42 45 47 48 53 56 54 53 56 59 62 62 70 77 80 77 74 80 74 71 83 99 104 101 104 99 96
7 13 18 20 23 25 27 31 33 34 35 36 36 36 37 37 40 43 46 47 53 56 58 61 62 71 73 69 71 72 73 72 79 82 81 74 67 72 73 79 82 85 109
16 19 21 22 24 27 29 31 33 33 33 34 32 32 34 37 40 42 46 52 54 54 58 62 63 66 66 63 67 66 67 74 80 77 71 71 78 72 72 76 80 87 88
20 22 24 28 31 31 31 33 34 32 31 30 29 30 33 36 41 46 50 52 50 49 51 56 62 59 59 62 56 61 66 63 63 62 63 61 69 63 70 74 84 84 88
21 25 29 30 29 28 31 33 31 29 27 27 29 29 34 38 40 41 43 43 46 50 52 58 57 56 67 62 55 57 61 59 56 53 52 52 56 62 62 68 82 92 99
25 28 28 28 28 30 28 28 27 25 27 26 29 33 34 36 35 42 47 50 53 57 60 68 64 62 57 55 51 42 49 55 56 55 53 49 53 41 42 49 56 48 49
30 29 29 29 29 25 25 26 26 21 23 29 32 34 35 33 39 42 47 50 54 55 70 55 55 52 52 65 40 41 51 48 57 54 56 50 52 38 19 18 23 26 21
27 27 27 28 25 26 25 24 20 23 27 29 31 34 35 34 32 41 53 53 43 47 57 62 61 55 51 52 56 44 51 45 58 63 40 39 25 13 7 11 7 9 11
25 28 28 27 28 26 23 22 24 25 27 29 30 33 28 34 32 40 46 48 44 47 49 56 57 55 55 53 48 48 42 37 17 19 20 27 13 6 20 22 26 24 9
28 28 29 28 30 25 23 23 23 25 26 28 30 32 27 27 33 45 48 44 37 39 48 51 51 55 58 42 27 22 21 19 6 9 13 14 12 9 13 17 22 16 4
32 27 28 29 27 26 24 26 26 24 24 26 28 28 28 27 32 45 46 37 38 37 46 43 42 33 24 35 25 13 10 21 22 20 13 12 9 15 9 2 4 10 12
Wind_Direction_850mb
215 212 198 206 274 296 303 322 279 230 223 221 225 227 229 231 233 231 230 232 216 226 229 226 238 252 243 237 239 247 264 273 278 282 286 287 291 288 284 279 278 277 276
241 212 209 230 248 262 301 288 306 266 219 227 226 230 236 235 235 231 228 237 223 218 224 228 227 233 235 247 252 254 262 268 273 277 285 290 294 293 292 290 289 285 281
238 222 207 211 237 259 275 255 266 269 268 243 232 231 222 227 221 223 226 227 221 219 220 228 224 229 239 240 271 276 266 265 271 272 279 294 294 304 299 295 292 292 293
239 227 203 202 221 234 225 272 283 246 256 255 253 234 208 218 226 222 224 228 225 219 219 223 231 239 239 252 241 254 251 250 266 277 278 280 286 289 295 297 296 295 293
243 217 206 195 195 208 210 244 267 257 239 231 226 239 223 227 223 218 220 214 225 211 219 232 235 248 256 245 244 238 245 252 260 269 279 283 284 286 285 293 298 296 292
190 166 170 182 175 181 211 238 232 229 218 226 207 216 234 218 210 204 216 219 227 243 239 235 248 247 249 254 247 261 265 266 260 260 264 272 279 285 287 291 295 297 293
154 175 171 167 182 187 194 201 198 190 184 176 178 191 193 190 189 181 217 229 234 241 255 267 265 254 263 265 255 258 263 263 264 268 265 265 267 273 279 284 289 292 295
116 114 120 129 134 142 156 162 159 157 156 160 162 186 173 173 177 211 208 222 239 250 250 251 244 251 260 261 261 267 266 262 262 266 266 262 259 262 268 274 283 288 289
113 109 107 111 122 127 126 130 132 133 133 136 129 174 196 213 225 234 250 263 261 263 273 265 262 267 271 271 263 262 263 261 259 257 258 261 259 258 257 264 269 275 283
117 115 114 114 115 110 108 114 119 113 107 109 136 259 285 276 280 285 285 285 283 283 282 283 282 280 277 274 269 268 266 264 261 258 256 256 254 256 255 255 260 265 270
121 113 107 102 101 100 93 85 79 68 48 27 332 305 299 294 293 292 291 289 288 288 286 284 283 279 275 273 271 266 263 261 260 259 260 256 254 254 253 256 258 260 262
121 115 109 101 93 85 77 42 33 26 8 354 339 323 311 306 298 294 292 291 290 289 287 283 278 274 273 272 269 270 268 266 267 269 265 262 259 255 257 255 255 257 256
115 110 103 90 79 58 43 28 12 5 348 337 327 320 311 308 305 300 299 295 290 288 286 280 278 280 279 278 275 272 271 271 270 269 268 270 267 264 262 260 260 260 261
109 91 77 64 33 19 3 358 351 347 335 326 322 317 314 308 306 303 299 298 295 288 284 284 285 283 281 278 277 275 274 271 270 270 270 270 268 270 272 270 265 262 259
90 56 31 14 360 351 344 342 334 332 326 321 317 312 311 310 308 302 295 291 290 289 287 283 279 276 274 275 276 271 269 271 272 274 271 267 265 265 263 267 272 271 265
63 2 351 345 339 337 334 328 326 322 318 315 311 311 308 305 296 296 298 294 291 285 284 285 285 283 278 275 269 265 271 271 270 268 272 272 271 264 260 261 260 260 265
358 333 330 329 327 325 321 317 312 313 313 309 306 303 301 299 299 299 297 295 290 293 293 291 290 289 291 286 279 275 274 274 270 270 272 274 275 272 272 272 269 273 259
328 324 323 319 315 311 311 309 309 309 308 306 303 303 307 305 302 303 300 299 299 299 299 296 293 291 291 293 290 286 285 280 274 272 273 270 272 274 278 275 274 271 268
325 322 318 315 313 313 309 307 310 309 307 307 308 310 306 308 310 305 303 303 304 300 299 297 292 291 291 293 296 292 289 283 280 276 271 271 271 274 278 278 282 279 270
323 319 313 314 311 308 308 309 308 309 305 301 297 309 311 306 305 303 305 303 300 299 301 305 297 290 298 308 299 294 293 289 283 280 276 280 279 283 284 279 277 275 267
324 320 318 314 309 312 311 307 303 297 291 300 311 301 301 302 306 315 326 312 307 313 304 305 298 291 290 310 301 292 292 288 280 280 281 276 279 277 277 282 290 281 277
328 325 322 316 317 318 311 302 297 300 320 307 305 308 311 310 327 322 314 318 306 297 311 314 306 305 295 302 303 292 288 287 284 280 279 272 278 289 306 328 48 72 83
331 329 324 321 318 312 309 309 320 322 307 315 314 315 318 325 320 316 314 329 319 312 308 318 320 311 305 300 299 291 294 286 279 278 263 274 268 132 33 178 174 169 153
341 335 329 323 321 321 321 317 310 311 313 314 316 324 335 339 321 321 331 335 330 326 325 319 316 318 315 310 308 307 307 309 291 261 243 236 256 255 238 262 275 274 267
344 343 339 335 332 336 335 329 322 318 314 312 322 331 331 321 325 338 360 355 346 336 326 326 324 316 317 339 318 297 278 281 223 174 205 182 204 263 266 293 281 292 108
348 349 348 342 346 346 343 328 325 318 314 317 323 326 329 322 329 340 3 17 12 7 357 345 350 8 347 339 353 344 349 49 98 146 154 136 142 193 237 209 199 113 100